MICROCARB

Last updated on Mon Sep 07 2026 00:02:46 GMT+0000 (Coordinated Universal Time)

1 64899U 25156A 26249.47091437 .00000238 00000+0 44867-4 0 9998 2 64899 98.0026 325.4094 0017446 9.4798 350.6736 14.72931188 59939
UTC large
Height (km)
Speed (km/s)
/
Latitude / Longitude
Inclination (degrees)
Orbital Period (minutes)
Azimuth
Elevation
Range (km)
Doppler Factor

Next 0 passes for location: London (51.5072 / 0.1276)

No passes found over London.
MICROCARB